Capitan Corbeta, Uruguay

7:18 PM -03 on August 20, 2017 (GMT -0300)
Capitan Curbelo International

Weather History for SULS - March, 2013

Change the Weather History Date:

Tuesday, March 12, 2013

  Actual Average Record
Temperature  
Mean Temperature 63 °F -  
Max Temperature 69 °F 72 °F 87 °F (2011)
Min Temperature 55 °F 59 °F 55 °F (2008)
Degree Days  
Heating Degree Days 2    
Growing Degree Days 13 (Base 50)    
Moisture  
Dew Point 50 °F    
Average Humidity 64    
Maximum Humidity 82    
Minimum Humidity 48    
Precipitation  
Precipitation 0.00 in - - ()
Sea Level Pressure  
Sea Level Pressure 29.85 in    
Wind  
Wind Speed 10 mph ()    
Max Wind Speed 20 mph    
Max Gust Speed -    
Visibility 5.9 miles    
Events      
Averages and records for this station are not official NWS values.
T = Trace of Precipitation, MM = Missing Value Source: Averaged Metar Reports

Daily Weather History Graph

Daily Weather History Graph

Search for Another Location

Airport or City:

Trip Planner

Search our weather history database for the weather conditions in past years. The results will help you decide how hot, cold, wet, or windy it might be!

Date:

Astronomy

Mar. 12, 2013 Rise Set
Actual Time 6:37 AM -03 7:02 PM -03
Civil Twilight 6:11 AM -03 7:27 PM -03
Nautical Twilight 5:42 AM -03 7:57 PM -03
Astronomical Twilight 5:11 AM -03 8:27 PM -03
Moon 7:20 AM -03 (3/12) 7:17 PM -03 (3/12)
Length of Visible Light 13h 15m
Length of Day
12h 25m
New Moon, 1% of the Moon is Illuminated
Mar 12
New Moon
Mar 19
First Quarter
Mar 27
Full
Apr 3
Last Quarter
Apr 10
New

Hourly Weather History & Observations

Time (-03) Temp. Dew Point Humidity Pressure Visibility Wind Dir Wind Speed Gust Speed Precip Events Conditions
12:00 AM 62.6 °F 53.6 °F 72% 29.74 in 6.2 mi NE 5.8 mph - N/A   Partly Cloudy
1:00 AM 60.8 °F 53.6 °F 77% 29.77 in 6.2 mi WNW 4.6 mph - N/A   Partly Cloudy
2:00 AM 57.2 °F 51.8 °F 82% 29.74 in 6.2 mi NW 4.6 mph - N/A   Partly Cloudy
3:00 AM 57.2 °F 51.8 °F 82% 29.74 in 6.2 mi NW 3.5 mph - N/A   Partly Cloudy
4:00 AM 60.8 °F 55.4 °F 82% 29.77 in 6.2 mi SSE 13.8 mph - N/A   Partly Cloudy
5:00 AM 60.8 °F 55.4 °F 82% 29.77 in 6.2 mi SSE 13.8 mph - N/A   Partly Cloudy
6:00 AM 62.6 °F 53.6 °F 72% 29.80 in 6.2 mi SSE 17.3 mph - N/A   Mostly Cloudy
7:00 AM 64.4 °F 55.4 °F 73% 29.80 in 3.1 mi SE 15.0 mph - N/A   Overcast
8:00 AM 62.6 °F 53.6 °F 72% 29.83 in 3.1 mi SSE 19.6 mph - N/A   Overcast
9:00 AM 62.6 °F 53.6 °F 72% 29.86 in 6.2 mi SSE 17.3 mph - N/A   Overcast
10:00 AM 66.2 °F 53.6 °F 64% 29.86 in 6.2 mi South 16.1 mph - N/A   Overcast
11:00 AM 68.0 °F 51.8 °F 56% 29.89 in 6.2 mi SSE 16.1 mph - N/A   Mostly Cloudy
12:00 PM 68.0 °F 50.0 °F 52% 29.89 in 6.2 mi South 13.8 mph - N/A   Mostly Cloudy
1:00 PM 69.8 °F 51.8 °F 53% 29.89 in 6.2 mi SSE 11.5 mph - N/A   Mostly Cloudy
2:00 PM 69.8 °F 51.8 °F 53% 29.89 in 6.2 mi South 13.8 mph - N/A   Overcast
3:00 PM 69.8 °F 51.8 °F 53% 29.89 in 6.2 mi SSE 17.3 mph - N/A   Mostly Cloudy
4:00 PM 66.2 °F 48.2 °F 52% 29.89 in 6.2 mi South 16.1 mph - N/A   Mostly Cloudy
5:00 PM 66.2 °F 48.2 °F 52% 29.89 in 6.2 mi SSE 13.8 mph - N/A   Mostly Cloudy
6:00 PM 62.6 °F 42.8 °F 48% 29.89 in 6.2 mi SSE 11.5 mph - N/A   Mostly Cloudy
7:00 PM 60.8 °F 42.8 °F 52% 29.92 in - SSE 11.5 mph - N/A   Unknown
8:00 PM 59.0 °F 44.6 °F 59% 29.92 in - SSE 12.7 mph - N/A   Unknown
9:00 PM 59.0 °F 44.6 °F 59% 29.92 in - SSE 13.8 mph - N/A   Clear
10:00 PM 59.0 °F 42.8 °F 55% 29.95 in - SSE 13.8 mph - N/A   Unknown
11:00 PM 55.4 °F 44.6 °F 67% 29.95 in - ESE 6.9 mph - N/A   Clear